DECAYED

STARLINK-1177, 45078 (Decayed)

Orbit data source: Space-Track

STARLINK-1177, 45078 was a payload satellite owned by SpaceX/Seattle (US) in LEO that was launched on Wed, 29 Jan 2020 UTC via an FALCON 9 launch vehicle from the Air Force Eastern Test Range (AFETR). Payload-class satellites include a variety of spacecraft equipped with specific instruments for various scientific and technological missions. These include communications satellites like Starlink; space stations such as the ISS; scientific satellites like the Hubble; Earth observation satellites from companies like Planet Labs, Umbra, and HawkEye 360; GPS; miniature CubeSats for education and research; and military/defense satellites.

Not visible in the next 10 days
Identifier
45078, 2020-006AL
Orbit
Decayed
Last TLE update
4 months ago
Origin
Manufacturer
SpaceX/Seattle
Mission
Decayed Commercial Communications
Bus & Motor
STARLINK, Unknown motor
Mass
260 kg wet, ~248 kg dry
Launch date (UTC)
2020-01-29 (5 years ago)
Launch vehicle
FALCON 9
Launch site
Air Force Eastern Test Range (AFETR)
Object type
Payload
Rocket body
Debris
Shape & HBR
Box + 1 Pan, 8.86 m
Radar Cross Section
13.562 m², Large (>1 m²)

Expand to show TLE details & history

TLE from 4 months ago
0 STARLINK-1177
1 45078U 20006AL  25052.61099455  .04031762  12030-4  11231-2 0  9998
2 45078  53.0349 126.5809 0004042  23.1033  88.8546 16.27108355279985
Epoch: 2025-02-21T14:39Z
TLE epoch observation values (Epoch: 2025-02-21T14:39:49.929Z)
Latitude
47.95167°
Longitude
-121.20984°
Altitude
205.573 km
Speed
7.789 km/s
True Right ascension
16h 42m 04s
True Declination
47° 45' 58"
Sunlit
Object was in daylight at epoch
Visualization orbit readout
Visualization observer readout
Orbital elements
Apogee altitude
203.269 km
Perigee altitude
197.951 km
Semi-major axis
6,578.747 km
Eccentricity
0.0004
Inclination
53.0349°
RAAN
126.5809°
Arg. of periapsis
23.1033°
True anomaly
Unknown
Mean anomaly
88.8546°
Eccentric anomaly
Unknown
Mean motion
4.06751 °/min
Orbital period
88.51 mins
BSTAR
0.0011231
Loading maneuver chart data...
Loading SW <> Apogee altitude chart data...
Loading historical data...
Loading historical data...
Loading historical data...
Loading historical data...
Loading historical data...
Loading historical data...
Loading historical data...

STARLINK-1177 Visibility

Observer location: undefined°, undefined°

This satellite is decayed
Span
Click to sort rows by Start time (UTC) header in descending order
Start Az.
Max El. time (UTC)
Max El. Az.
Max El.
End time (UTC)
End Az.
|